Tracking 30995 objects as of 6-Jul-2025
HD Live streaming from Space Station
objects crossing your sky now

STARLINK-30300

Track STARLINK-30300 now!
10-day predictions
STARLINK-30300 is classified as:


NORAD ID: 57715
Int'l Code: 2023-129T
Perigee: 565.4 km
Apogee: 567.0 km
Inclination: 43.0 °
Period: 95.8 minutes
Semi major axis: 6937 km
RCS: Unknown
Launch date: August 27, 2023
Source: United States (US)
Launch site: AIR FORCE EASTERN TEST RANGE (AFETR)
Your satellite tracking list
STARLINK-30891
Track 1 satellite(s)




NASA's NSSDC Master Catalog

Two Line Element Set (TLE):
1 57715U 23129T   25187.85366528  .00000266  00000-0  34783-4 0  9991
2 57715  43.0054  16.1501 0001137 269.0299  91.0413 15.02535768103673
Source of the keplerian elements: AFSPC